�N����,����,�~����,�C��,���x,�C��,����,���ϕ���,�ő�u�ԕ���,�ő厞����,���˗�,�I�_���x,�n�����x
"17/10/01","01:00",0.0,14.1,88.9,1017.3,295.9,1.2,4.4,317.6,0.00,12.3,19.4
"17/10/01","02:00",0.0,14.4,88.3,1017.1,321.1,1.8,4.3,329.5,0.00,12.5,19.3
"17/10/01","03:00",0.0,14.3,87.1,1017.5,329.9,2.5,5.4,324.4,0.00,12.2,19.1
"17/10/01","04:00",0.0,13.4,87.1,1018.2,326.8,2.1,5.9,338.8,0.00,11.3,18.9
"17/10/01","05:00",0.0,12.7,90.1,1018.2,319.6,2.2,3.5,312.5,0.00,11.2,18.8
"17/10/01","06:00",0.0,11.6,90.5,1018.7,308.6,1.6,3.3,334.4,0.00,10.1,18.8
"17/10/01","07:00",0.0,14.5,79.0,1018.5,318.0,1.8,3.6,320.2,0.06,10.9,18.4
"17/10/01","08:00",0.0,17.9,70.2,1019.0,335.8,1.1,3.2,341.3,0.63,12.4,18.5
"17/10/01","09:00",0.0,20.8,67.3,1017.3,150.5,0.6,1.8,192.2,1.54,14.6,19.5
"17/10/01","10:00",0.0,22.5,57.2,1016.4,258.4,0.5,2.0,224.8,1.93,13.7,20.1
"17/10/01","11:00",0.0,23.3,54.5,1014.9,267.7,0.8,3.1,229.2,1.51,13.7,20.9
"17/10/01","12:00",0.0,24.8,52.5,1014.2,322.1,1.1,3.2,310.6,1.95,14.5,21.6
"17/10/01","13:00",0.0,26.4,52.5,1014.2,156.6,1.0,3.2,39.3,2.61,15.9,22.5
"17/10/01","14:00",0.0,25.7,58.4,1012.1,87.8,1.1,3.2,141.3,1.53,17.0,22.8
"17/10/01","15:00",0.0,25.5,61.2,1012.3,69.2,0.8,3.1,83.1,0.87,17.5,22.9
"17/10/01","16:00",0.0,25.5,62.1,1012.1,106.5,0.7,3.2,14.8,0.52,17.8,22.6
"17/10/01","17:00",0.0,24.3,65.2,1013.5,72.7,0.8,4.2,104.9,0.17,17.4,22.5
"17/10/01","18:00",0.0,22.6,74.1,1013.3,314.2,0.7,2.9,36.1,0.00,17.8,22.1
"17/10/01","19:00",0.0,20.9,81.0,1013.5,311.3,0.7,1.9,306.2,0.00,17.6,21.8
"17/10/01","20:00",0.0,20.1,85.2,1014.0,300.1,1.1,1.9,305.0,0.00,17.6,21.5
"17/10/01","21:00",0.0,19.3,88.1,1014.0,325.2,1.0,2.5,321.6,0.00,17.3,21.2
"17/10/01","22:00",0.0,18.6,90.3,1014.2,305.6,1.0,2.1,329.2,0.00,17.0,20.9
"17/10/01","23:00",0.0,18.5,90.6,1013.8,345.7,0.8,2.0,306.3,0.00,17.0,20.8
"17/10/01","24:00",0.0,18.2,92.6,1013.5,287.9,1.0,2.4,318.4,0.00,17.0,20.7
"17/10/02","01:00",0.0,18.3,91.6,1013.8,313.0,1.1,2.1,322.0,0.00,16.9,20.4
"17/10/02","02:00",0.0,18.4,92.6,1013.0,319.9,1.3,1.9,324.2,0.00,17.2,20.5
"17/10/02","03:00",0.0,18.6,92.6,1012.3,297.8,1.2,1.8,316.6,0.00,17.4,20.2
"17/10/02","04:00",0.0,18.6,92.7,1011.9,308.1,1.2,2.1,323.8,0.00,17.4,20.5
"17/10/02","05:00",0.0,19.2,91.4,1011.6,314.1,1.0,2.4,342.4,0.00,17.8,20.2
"17/10/02","06:00",0.8,19.3,92.9,1011.2,293.3,1.0,1.8,333.6,0.00,18.2,20.2
"17/10/02","07:00",1.0,19.4,94.3,1011.4,278.7,0.8,1.9,301.1,0.00,18.5,20.4
"17/10/02","08:00",0.6,19.8,94.7,1011.6,321.9,1.1,1.9,332.3,0.02,19.0,20.5
"17/10/02","09:00",0.8,20.2,95.0,1011.4,297.4,1.0,1.9,330.7,0.08,19.4,20.7
"17/10/02","10:00",0.6,21.0,94.0,1010.4,289.1,0.7,2.2,306.9,0.33,20.0,20.7
"17/10/02","11:00",0.8,21.1,92.6,1009.5,292.4,0.6,1.4,352.8,0.34,19.9,21.0
"17/10/02","12:00",2.2,20.9,93.5,1008.6,270.0,0.6,1.3,323.9,0.20,19.9,21.0
"17/10/02","13:00",1.4,20.7,93.6,1008.1,312.1,0.3,1.3,315.4,0.17,19.7,21.2
"17/10/02","14:00",2.0,20.5,94.2,1007.4,255.6,0.6,1.8,342.8,0.13,19.6,21.2
"17/10/02","15:00",1.8,20.5,94.9,1006.7,295.8,0.2,1.4,343.6,0.07,19.7,21.2
"17/10/02","16:00",1.2,20.7,95.0,1005.7,273.7,0.5,1.1,313.7,0.10,19.9,21.2
"17/10/02","17:00",1.4,20.3,95.5,1006.0,310.3,0.7,1.6,302.8,0.00,19.6,21.3
"17/10/02","18:00",3.6,20.0,96.0,1005.5,324.5,0.7,1.4,344.2,0.00,19.4,21.1
"17/10/02","19:00",5.6,20.0,96.5,1005.7,263.0,0.7,1.4,337.7,0.00,19.5,21.0
"17/10/02","20:00",8.8,20.1,96.7,1006.2,299.8,0.8,1.7,315.4,0.00,19.6,21.0
"17/10/02","21:00",4.6,20.1,96.9,1006.0,277.7,0.3,1.4,232.9,0.00,19.6,20.8
"17/10/02","22:00",2.8,20.1,97.1,1005.7,305.5,0.5,2.0,337.6,0.00,19.7,20.9
"17/10/02","23:00",1.4,20.1,97.3,1005.2,311.5,0.7,2.0,336.2,0.00,19.7,20.8
"17/10/02","24:00",0.4,20.3,97.3,1004.8,297.7,0.7,1.6,336.7,0.00,19.9,20.8
"17/10/03","01:00",0.4,20.3,97.4,1004.8,323.9,0.8,1.2,344.2,0.00,19.9,20.9
"17/10/03","02:00",1.0,20.3,97.5,1004.3,336.4,0.8,1.3,335.0,0.00,19.9,20.9
"17/10/03","03:00",1.0,20.3,97.6,1004.1,328.6,1.3,1.9,339.8,0.00,19.9,20.8
"17/10/03","04:00",1.6,20.3,97.7,1003.6,318.0,1.0,1.9,328.1,0.00,20.0,21.0
"17/10/03","05:00",0.2,20.3,97.8,1003.6,318.1,0.8,1.4,334.7,0.00,20.0,20.8
"17/10/03","06:00",0.6,20.3,97.8,1004.1,298.0,0.8,1.7,318.5,0.00,20.0,21.0
"17/10/03","07:00",0.4,20.7,97.9,1004.5,324.7,0.6,1.6,331.0,0.00,20.4,21.1
"17/10/03","08:00",0.0,21.4,97.7,1004.3,264.9,0.3,1.7,337.7,0.19,21.1,21.1
"17/10/03","09:00",0.0,22.8,92.9,1005.0,318.6,0.5,1.4,343.3,0.72,21.6,21.4
"17/10/03","10:00",0.0,24.1,88.9,1004.8,260.7,0.8,2.5,342.2,0.79,22.2,21.7
"17/10/03","11:00",0.0,24.5,84.5,1005.2,317.0,1.8,5.0,324.1,0.92,21.8,22.2
"17/10/03","12:00",0.0,25.6,76.9,1004.3,335.5,2.6,5.4,338.5,1.69,21.3,22.7
"17/10/03","13:00",0.0,24.9,73.5,1004.8,340.6,2.3,7.2,332.9,1.65,19.9,23.2
"17/10/03","14:00",0.0,23.8,72.9,1004.8,351.5,2.5,8.8,20.8,2.22,18.7,23.5
"17/10/03","15:00",0.0,22.4,73.0,1005.5,344.7,2.5,6.6,345.2,0.99,17.4,23.3
"17/10/03","16:00",0.0,22.8,68.4,1006.0,331.7,2.1,7.8,334.2,0.86,16.7,23.3
"17/10/03","17:00",0.0,20.6,71.5,1006.9,345.0,1.6,5.9,337.8,0.29,15.3,22.8
"17/10/03","18:00",0.0,19.4,76.6,1008.1,342.7,1.6,5.4,323.4,0.00,15.2,22.2
"17/10/03","19:00",0.0,18.0,83.0,1008.8,322.5,1.0,2.9,326.5,0.00,15.1,21.6
"17/10/03","20:00",0.0,17.9,87.0,1009.7,330.2,1.5,2.9,333.2,0.00,15.7,21.2
"17/10/03","21:00",0.0,17.1,87.3,1010.2,339.0,1.3,2.7,347.2,0.00,15.0,21.1
"17/10/03","22:00",0.0,17.9,84.8,1010.9,321.3,2.1,5.5,335.3,0.00,15.3,20.9
"17/10/03","23:00",0.0,17.7,76.1,1011.4,306.7,1.5,5.2,340.6,0.00,13.5,20.7
"17/10/03","24:00",0.0,15.3,87.1,1010.4,322.3,1.0,2.2,314.8,0.00,13.2,20.2
"17/10/04","01:00",0.0,14.2,91.2,1010.7,319.3,1.0,2.4,322.8,0.00,12.8,19.9
"17/10/04","02:00",0.0,14.5,91.6,1010.7,320.0,1.0,3.3,335.0,0.00,13.2,19.6
"17/10/04","03:00",0.0,15.0,90.7,1011.2,303.9,0.8,2.7,346.5,0.00,13.5,19.5
"17/10/04","04:00",0.0,15.7,86.6,1011.9,327.8,1.0,3.5,341.5,0.00,13.5,19.2
"17/10/04","05:00",0.0,15.0,90.6,1012.1,311.6,0.8,1.9,321.8,0.00,13.5,19.6
"17/10/04","06:00",0.0,16.4,80.0,1013.5,321.9,1.6,2.9,347.6,0.00,13.0,19.3
"17/10/04","07:00",0.0,16.6,73.6,1014.0,324.9,1.3,2.8,332.4,0.00,11.9,19.4
"17/10/04","08:00",0.0,16.9,72.4,1014.9,311.1,1.6,2.6,335.5,0.16,11.9,19.5
"17/10/04","09:00",0.0,19.5,57.6,1014.7,344.3,1.6,4.1,336.7,1.24,11.0,19.9
"17/10/04","10:00",0.2,18.9,59.7,1014.7,358.0,2.6,5.5,334.7,1.09,10.9,20.2
"17/10/04","11:00",0.0,20.7,52.9,1014.7,349.6,2.5,7.4,355.5,1.33,10.8,20.4
"17/10/04","12:00",0.0,21.8,47.0,1013.5,351.9,1.6,7.2,346.9,3.08,10.0,21.2
"17/10/04","13:00",0.0,21.1,50.4,1013.3,356.0,2.2,6.4,35.9,2.28,10.4,21.9
"17/10/04","14:00",0.0,21.9,52.0,1013.3,338.6,2.8,8.7,335.5,2.64,11.6,22.3
"17/10/04","15:00",0.0,20.4,50.5,1013.8,345.2,3.2,8.6,326.3,1.50,9.8,22.3
"17/10/04","16:00",0.0,18.4,52.9,1014.9,350.5,2.6,6.8,30.0,0.50,8.7,21.7
"17/10/04","17:00",0.0,18.2,52.8,1015.4,344.8,2.0,6.5,349.3,0.24,8.5,21.2
"17/10/04","18:00",0.0,14.9,68.8,1015.4,292.9,1.0,4.7,346.4,0.00,9.3,20.5
"17/10/04","19:00",0.0,12.7,81.0,1016.4,300.0,1.2,3.1,307.4,0.00,9.6,20.1
"17/10/04","20:00",0.0,12.3,83.7,1016.6,314.7,1.5,4.1,317.6,0.00,9.7,19.4
"17/10/04","21:00",0.0,11.6,86.6,1017.5,324.6,1.3,2.2,314.2,0.00,9.5,19.2
"17/10/04","22:00",0.0,11.4,88.1,1017.8,320.6,1.6,2.2,330.8,0.00,9.5,18.6
"17/10/04","23:00",0.0,11.2,88.7,1017.5,317.0,1.7,2.6,318.0,0.00,9.4,18.3
"17/10/04","24:00",0.0,10.9,88.8,1017.8,297.2,1.3,3.2,314.9,0.00,9.2,18.2
"17/10/05","01:00",0.0,11.4,88.8,1018.0,300.9,1.5,3.2,318.6,0.00,9.7,17.7
"17/10/05","02:00",0.0,11.7,87.6,1018.5,296.3,1.2,3.5,335.2,0.00,9.8,17.8
"17/10/05","03:00",0.0,11.6,89.7,1018.5,302.4,1.2,2.5,320.4,0.00,10.0,17.7
"17/10/05","04:00",0.0,11.6,90.2,1018.5,303.5,0.8,3.1,325.7,0.00,10.1,17.9
"17/10/05","05:00",0.0,10.9,93.2,1019.0,305.5,1.3,2.0,328.6,0.00,9.9,17.5
"17/10/05","06:00",0.0,10.5,94.0,1018.5,315.3,1.5,2.0,334.9,0.00,9.6,17.4
"17/10/05","07:00",0.0,11.6,94.9,1019.0,296.2,1.2,2.4,320.8,0.03,10.9,17.2
"17/10/05","08:00",0.0,14.6,85.5,1019.9,307.7,1.1,2.5,320.4,0.33,12.2,17.5
"17/10/05","09:00",0.0,17.0,75.6,1020.1,317.9,0.8,2.4,325.6,0.76,12.7,18.0
"17/10/05","10:00",0.0,19.6,57.2,1019.7,217.5,0.5,2.2,221.5,1.42,11.0,18.5
"17/10/05","11:00",0.0,21.1,52.2,1018.2,238.1,0.7,2.8,205.4,2.16,11.0,19.6
"17/10/05","12:00",0.0,23.3,48.6,1017.3,170.0,0.8,2.6,343.3,2.24,11.9,20.2
"17/10/05","13:00",0.0,23.8,44.4,1016.1,95.4,1.1,3.5,236.4,2.51,11.0,21.0
"17/10/05","14:00",0.0,23.5,45.6,1015.9,153.6,1.2,3.5,133.1,2.19,11.1,21.5
"17/10/05","15:00",0.0,22.9,50.7,1016.1,140.2,1.1,3.4,193.9,1.51,12.2,21.7
"17/10/05","16:00",0.0,22.7,53.0,1015.9,128.5,1.1,2.8,119.3,0.90,12.7,21.4
"17/10/05","17:00",0.0,21.0,59.1,1017.3,124.5,0.8,3.3,105.3,0.24,12.8,20.8
"17/10/05","18:00",0.0,19.7,66.2,1017.8,61.3,0.8,3.3,140.0,0.00,13.3,20.6
"17/10/05","19:00",0.0,19.3,70.0,1019.0,63.0,0.7,2.8,146.9,0.00,13.7,20.2
"17/10/05","20:00",0.0,18.9,71.9,1019.2,8.9,0.7,3.1,89.8,0.00,13.8,20.1
"17/10/05","21:00",0.0,18.7,73.2,1020.1,348.9,0.7,2.9,353.1,0.00,13.8,19.8
"17/10/05","22:00",0.0,18.7,73.7,1019.7,353.1,0.8,2.6,82.0,0.00,14.0,19.8
"17/10/05","23:00",0.0,18.5,74.9,1019.4,357.5,0.8,2.5,350.1,0.00,14.0,19.6
"17/10/05","24:00",0.0,18.3,76.4,1019.9,347.9,0.6,3.4,345.2,0.00,14.1,19.6
"17/10/06","01:00",0.0,18.3,75.2,1019.4,32.0,0.6,2.4,307.1,0.00,13.9,19.5
"17/10/06","02:00",0.0,18.3,75.0,1019.0,2.7,0.6,2.0,126.1,0.00,13.8,19.4
"17/10/06","03:00",0.0,18.3,74.8,1018.7,26.7,0.7,2.7,71.8,0.00,13.8,19.3
"17/10/06","04:00",0.0,18.4,74.2,1018.2,51.3,1.0,2.4,54.1,0.00,13.8,19.4
"17/10/06","05:00",0.0,18.3,74.3,1018.2,62.1,0.7,2.4,97.6,0.00,13.7,19.3
"17/10/06","06:00",0.0,18.5,71.8,1019.2,37.8,1.2,3.5,67.9,0.00,13.4,18.9
"17/10/06","07:00",0.0,18.9,70.7,1019.0,55.3,1.3,5.6,1.6,0.00,13.5,19.1
"17/10/06","08:00",0.0,19.2,68.6,1019.2,37.1,1.2,3.5,33.8,0.05,13.3,19.0
"17/10/06","09:00",0.0,19.3,66.5,1018.5,76.5,1.6,3.7,92.5,0.04,13.0,19.1
"17/10/06","10:00",0.0,18.9,70.6,1018.7,49.1,1.3,4.1,93.6,0.20,13.5,19.1
"17/10/06","11:00",1.6,17.3,83.4,1018.5,332.0,1.3,3.5,342.6,0.17,14.5,18.9
"17/10/06","12:00",1.4,16.9,88.0,1017.5,304.2,0.8,3.3,2.7,0.18,14.9,19.2
"17/10/06","13:00",1.8,16.6,91.0,1016.1,60.5,0.6,2.2,33.6,0.09,15.2,19.1
"17/10/06","14:00",2.2,16.6,91.2,1015.6,331.5,0.6,2.0,344.4,0.03,15.2,19.1
"17/10/06","15:00",2.4,17.2,91.5,1015.2,304.9,0.6,3.3,0.1,0.15,15.8,19.1
"17/10/06","16:00",1.8,16.7,92.0,1015.2,13.5,0.8,3.1,1.2,0.03,15.4,19.0
"17/10/06","17:00",2.0,15.9,90.8,1015.2,11.0,1.0,4.5,357.0,0.02,14.4,18.9
"17/10/06","18:00",1.6,15.5,91.0,1014.9,21.4,1.3,4.9,24.1,0.00,14.1,19.0
"17/10/06","19:00",1.6,15.1,93.4,1015.4,263.0,0.7,4.4,25.1,0.00,14.1,18.7
"17/10/06","20:00",2.6,15.1,95.1,1015.2,331.9,0.8,2.0,323.9,0.00,14.4,18.2
"17/10/06","21:00",3.2,15.2,96.0,1014.9,349.1,0.7,1.6,354.0,0.00,14.6,18.3
"17/10/06","22:00",3.2,15.5,96.8,1013.8,318.6,1.0,2.7,322.4,0.00,15.0,18.2
"17/10/06","23:00",3.4,16.3,96.9,1012.8,278.9,0.7,1.9,337.1,0.00,15.8,18.3
"17/10/06","24:00",2.8,16.8,96.6,1012.8,297.4,0.7,4.1,337.5,0.00,16.3,18.3
"17/10/07","01:00",2.4,16.9,96.8,1012.3,309.3,1.1,1.9,321.9,0.00,16.4,18.3
"17/10/07","02:00",1.8,17.0,97.0,1012.3,303.6,0.8,2.6,336.9,0.00,16.6,18.6
"17/10/07","03:00",1.2,17.2,97.0,1012.1,315.1,0.8,1.7,338.9,0.00,16.8,18.6
"17/10/07","04:00",1.2,17.2,97.3,1011.9,287.1,0.7,1.4,343.2,0.00,16.8,18.6
"17/10/07","05:00",1.2,17.4,97.4,1012.3,286.5,0.6,1.3,303.6,0.00,17.0,18.8
"17/10/07","06:00",1.0,17.5,97.5,1012.8,283.8,0.6,1.1,318.7,0.00,17.1,18.8
"17/10/07","07:00",0.8,17.9,97.6,1012.8,286.3,0.8,1.6,312.4,0.00,17.6,18.5
"17/10/07","08:00",0.8,18.4,97.6,1013.0,300.1,0.8,1.6,317.3,0.01,18.1,18.8
"17/10/07","09:00",0.6,18.8,97.5,1013.3,269.4,1.0,1.2,311.5,0.06,18.4,19.1
"17/10/07","10:00",0.6,19.9,96.4,1013.3,217.9,0.5,1.3,231.0,0.42,19.3,19.1
"17/10/07","11:00",0.4,21.1,93.3,1012.6,279.2,0.8,1.7,350.0,0.76,20.0,19.4
"17/10/07","12:00",0.2,22.6,86.0,1012.1,292.1,0.8,2.0,339.6,1.08,20.2,20.2
"17/10/07","13:00",0.0,22.9,86.2,1012.3,232.9,0.6,2.0,230.4,0.96,20.5,20.5
"17/10/07","14:00",0.0,23.1,86.5,1011.6,266.3,0.6,1.9,312.8,0.73,20.8,20.7
"17/10/07","15:00",0.0,23.5,83.3,1011.6,338.6,0.7,1.7,349.2,0.81,20.5,21.1
"17/10/07","16:00",0.0,23.7,83.7,1011.6,280.7,0.7,1.8,347.7,0.56,20.8,21.2
"17/10/07","17:00",0.0,23.2,86.4,1012.1,320.4,1.1,2.4,239.1,0.18,20.8,21.1
"17/10/07","18:00",0.0,22.0,91.2,1012.8,331.5,1.2,2.0,317.6,0.00,20.5,21.1
"17/10/07","19:00",0.0,20.9,92.3,1012.8,325.2,1.8,3.3,339.0,0.00,19.6,20.7
"17/10/07","20:00",0.0,19.6,93.3,1013.0,271.6,0.5,2.0,315.2,0.00,18.5,20.6
"17/10/07","21:00",0.0,19.9,93.5,1014.0,346.0,1.1,2.5,320.2,0.00,18.9,20.4
"17/10/07","22:00",0.0,19.5,92.9,1014.7,345.3,1.5,4.0,343.2,0.00,18.4,20.2
"17/10/07","23:00",0.0,19.4,92.9,1014.9,288.6,0.7,3.1,330.2,0.00,18.3,20.2
"17/10/07","24:00",0.0,18.7,94.7,1014.9,327.7,1.7,3.1,339.7,0.00,17.9,20.2
"17/10/08","01:00",0.0,19.0,94.9,1015.2,324.8,0.7,2.6,332.2,0.00,18.2,20.0
"17/10/08","02:00",0.0,17.7,96.0,1015.4,309.3,1.8,2.4,310.2,0.00,17.1,19.7
"17/10/08","03:00",0.0,18.3,96.2,1015.2,326.8,2.1,4.4,329.0,0.00,17.7,19.6
"17/10/08","04:00",0.0,17.1,96.4,1015.4,326.2,1.6,2.6,327.3,0.00,16.6,19.2
"17/10/08","05:00",0.0,17.9,96.5,1015.9,328.8,2.2,4.1,331.0,0.00,17.4,19.2
"17/10/08","06:00",0.0,17.9,96.5,1016.1,313.5,1.8,6.5,335.1,0.00,17.4,19.2
"17/10/08","07:00",0.0,19.7,92.9,1017.1,320.4,1.6,3.5,304.6,0.05,18.6,19.4
"17/10/08","08:00",0.0,20.4,89.3,1018.0,330.5,1.7,3.4,343.2,0.43,18.6,19.6
"17/10/08","09:00",0.0,23.7,79.3,1017.1,97.1,0.7,2.4,232.5,1.42,19.9,19.9
"17/10/08","10:00",0.0,24.9,71.2,1015.6,89.2,0.7,2.8,181.9,2.24,19.4,20.6
"17/10/08","11:00",0.0,25.8,68.2,1015.9,143.6,1.1,3.7,187.9,2.53,19.5,21.5
"17/10/08","12:00",0.0,26.3,62.5,1015.9,214.9,1.6,4.3,205.0,3.00,18.6,22.4
"17/10/08","13:00",0.0,27.9,57.1,1015.6,194.8,1.2,3.9,205.6,3.06,18.7,23.4
"17/10/08","14:00",0.0,28.0,56.6,1014.5,209.2,1.2,3.4,199.4,2.53,18.6,23.8
"17/10/08","15:00",0.0,28.1,56.5,1013.5,211.3,1.5,4.1,202.4,2.04,18.7,23.7
"17/10/08","16:00",0.0,28.5,55.4,1012.8,288.0,0.6,3.2,222.7,1.35,18.7,23.7
"17/10/08","17:00",0.0,25.2,69.0,1013.5,301.7,1.2,3.3,345.0,0.36,19.2,23.4
"17/10/08","18:00",0.0,22.5,79.0,1015.2,285.4,1.3,3.9,330.2,0.00,18.7,22.6
"17/10/08","19:00",0.0,22.0,83.4,1015.9,279.3,1.0,2.4,244.5,0.00,19.1,22.2
"17/10/08","20:00",0.0,21.8,84.4,1016.6,338.1,0.6,3.5,340.8,0.00,19.1,21.9
"17/10/08","21:00",0.0,21.2,87.5,1016.6,318.2,1.6,2.8,341.2,0.00,19.1,21.7
"17/10/08","22:00",0.0,19.9,91.2,1016.4,313.8,0.7,1.9,309.2,0.00,18.5,21.4
"17/10/08","23:00",0.0,19.8,91.7,1017.1,302.7,0.8,1.8,315.3,0.00,18.5,21.3
"17/10/08","24:00",0.0,19.5,92.8,1016.8,319.5,1.2,2.1,317.8,0.00,18.3,21.0
"17/10/09","01:00",0.0,19.0,93.0,1017.1,302.2,1.0,1.6,324.6,0.00,17.9,20.8
"17/10/09","02:00",0.0,18.9,94.5,1017.8,305.4,0.8,1.8,320.2,0.00,18.0,20.7
"17/10/09","03:00",0.0,18.5,95.1,1017.5,298.0,1.1,1.9,321.2,0.00,17.7,20.5
"17/10/09","04:00",0.0,18.0,95.8,1017.3,304.1,1.2,2.0,320.8,0.00,17.4,20.3
"17/10/09","05:00",0.0,18.4,96.5,1017.8,320.8,1.1,1.8,311.8,0.00,17.9,20.1
"17/10/09","06:00",0.0,18.8,96.5,1018.5,304.4,0.2,1.7,320.2,0.00,18.3,20.3
"17/10/09","07:00",0.0,18.6,96.7,1018.7,294.2,0.7,1.8,323.3,0.01,18.1,20.3
"17/10/09","08:00",0.0,20.4,93.5,1018.7,316.5,0.2,1.9,326.0,0.28,19.4,20.2
"17/10/09","09:00",0.0,23.2,82.3,1018.7,252.7,0.3,1.9,332.0,0.94,20.1,20.7
"17/10/09","10:00",0.0,25.6,73.0,1016.8,178.3,1.1,2.6,196.4,1.71,20.4,21.2
"17/10/09","11:00",0.0,26.9,67.4,1016.8,327.8,1.1,3.6,203.8,2.75,20.4,22.2
"17/10/09","12:00",0.0,27.9,64.4,1015.2,168.1,1.3,3.9,208.3,2.44,20.6,23.0
"17/10/09","13:00",0.0,27.5,65.2,1014.2,214.3,1.3,4.7,203.6,1.70,20.4,23.5
"17/10/09","14:00",0.0,28.4,61.6,1013.3,194.1,1.3,4.1,227.0,2.22,20.4,23.8
"17/10/09","15:00",0.0,29.2,59.3,1013.3,225.9,0.8,3.7,225.3,1.89,20.5,24.2
"17/10/09","16:00",0.0,28.7,57.0,1012.3,233.9,1.1,2.9,233.3,1.07,19.4,24.2
"17/10/09","17:00",0.0,26.2,68.7,1011.6,303.3,0.7,2.5,228.1,0.29,20.0,23.7
"17/10/09","18:00",0.0,23.2,79.7,1012.6,308.2,1.6,2.7,330.2,0.00,19.5,23.2
"17/10/09","19:00",0.0,22.0,83.7,1013.0,310.8,1.0,3.2,325.7,0.00,19.2,22.7
"17/10/09","20:00",0.0,20.7,88.7,1013.0,321.8,0.8,2.2,334.7,0.00,18.8,22.3
"17/10/09","21:00",0.0,20.3,90.2,1014.0,286.0,1.0,2.1,318.4,0.00,18.7,22.0
"17/10/09","22:00",0.0,20.4,89.9,1014.0,308.7,1.3,3.3,329.2,0.00,18.7,21.6
"17/10/09","23:00",0.0,20.2,89.8,1014.7,323.4,1.7,3.5,335.7,0.00,18.5,21.4
"17/10/09","24:00",0.0,19.5,91.5,1014.5,328.1,1.3,2.9,340.3,0.00,18.1,21.5
"17/10/10","01:00",0.0,19.1,92.8,1014.5,318.0,1.6,2.6,331.1,0.00,17.9,21.1
"17/10/10","02:00",0.0,18.2,94.2,1014.7,294.7,1.1,2.1,326.2,0.00,17.3,20.8
"17/10/10","03:00",0.0,18.0,95.4,1014.0,283.9,1.1,1.9,318.7,0.00,17.3,20.6
"17/10/10","04:00",0.0,17.9,96.0,1013.5,310.1,1.2,1.8,313.1,0.00,17.3,20.6
"17/10/10","05:00",0.0,18.5,95.9,1013.5,286.7,1.0,1.9,325.9,0.00,17.9,20.2
"17/10/10","06:00",0.0,17.9,96.0,1014.0,307.8,1.3,2.2,326.3,0.00,17.3,20.3
"17/10/10","07:00",0.0,18.9,96.0,1013.5,311.9,0.8,1.8,319.5,0.04,18.3,20.5
"17/10/10","08:00",0.0,22.4,84.7,1014.2,278.7,0.5,1.9,331.0,0.50,19.7,20.5
"17/10/10","09:00",0.0,23.9,79.4,1013.3,179.1,0.8,2.2,216.3,1.27,20.2,21.0
"17/10/10","10:00",0.0,25.9,73.1,1012.6,170.9,0.7,3.1,211.8,2.02,20.8,21.7
"17/10/10","11:00",0.0,28.1,62.3,1012.6,252.9,1.2,3.3,330.6,2.61,20.3,22.4
"17/10/10","12:00",0.0,28.8,60.9,1011.6,230.4,1.7,4.8,233.2,3.02,20.5,23.6
"17/10/10","13:00",0.0,29.0,59.7,1010.2,310.0,0.8,4.8,182.2,1.85,20.4,23.9
"17/10/10","14:00",0.0,29.0,55.9,1010.7,272.4,0.7,3.9,338.7,2.20,19.3,24.4
"17/10/10","15:00",0.0,28.2,61.6,1009.7,320.6,0.5,2.5,355.1,1.31,20.2,24.7
"17/10/10","16:00",0.0,28.6,60.0,1009.3,305.0,0.5,2.1,228.7,0.87,20.1,24.5
"17/10/10","17:00",0.0,25.7,71.4,1009.3,305.3,0.8,3.2,331.7,0.15,20.2,23.8
"17/10/10","18:00",0.0,23.4,80.3,1010.4,322.4,1.0,2.4,351.2,0.00,19.9,23.6
"17/10/10","19:00",0.0,21.7,87.1,1011.4,315.7,1.5,2.4,314.0,0.00,19.5,22.9
"17/10/10","20:00",0.0,21.1,89.5,1011.4,314.6,1.5,2.6,318.6,0.00,19.3,22.4
"17/10/10","21:00",0.0,20.2,90.6,1012.1,320.3,0.6,2.2,323.7,0.00,18.7,22.0
"17/10/10","22:00",0.0,19.7,92.3,1012.3,340.5,1.2,2.1,346.9,0.00,18.5,22.0
"17/10/10","23:00",0.0,19.7,90.3,1012.3,338.6,1.2,3.1,338.9,0.00,18.1,21.4
"17/10/10","24:00",0.0,19.4,92.8,1012.1,330.8,0.6,1.9,337.2,0.00,18.2,21.3
"17/10/11","01:00",0.0,20.4,91.8,1011.6,289.3,1.0,2.6,339.4,0.00,19.1,21.3
"17/10/11","02:00",0.0,20.1,90.6,1011.2,319.9,1.0,1.7,320.8,0.00,18.6,21.5
"17/10/11","03:00",0.0,18.6,92.8,1010.2,297.8,1.2,1.8,336.3,0.00,17.5,21.1
"17/10/11","04:00",0.0,18.2,94.3,1010.2,301.5,1.3,2.1,328.4,0.00,17.3,20.9
"17/10/11","05:00",0.0,17.7,94.5,1010.7,300.7,1.1,2.2,314.9,0.00,16.8,20.8
"17/10/11","06:00",0.0,17.2,95.5,1011.2,313.8,1.3,2.2,314.6,0.00,16.5,20.5
"17/10/11","07:00",0.0,19.0,96.1,1011.6,318.3,0.7,2.1,322.0,0.05,18.4,20.3
"17/10/11","08:00",0.0,21.4,86.4,1011.9,321.9,0.6,2.0,328.0,0.37,19.1,20.6
"17/10/11","09:00",0.0,23.8,77.3,1011.4,280.4,0.5,1.6,228.1,1.07,19.6,21.0
"17/10/11","10:00",0.0,24.5,72.5,1010.2,200.6,1.2,2.8,213.0,1.60,19.3,21.6
"17/10/11","11:00",0.0,27.4,68.2,1010.2,163.4,1.0,2.7,112.8,2.33,21.1,22.5
"17/10/11","12:00",0.0,27.9,63.6,1009.0,182.2,1.2,3.3,205.6,2.53,20.4,23.2
"17/10/11","13:00",0.0,28.9,58.9,1008.8,337.5,1.2,3.6,346.7,2.55,20.1,24.0
"17/10/11","14:00",0.0,30.0,55.0,1008.6,269.8,1.0,4.0,202.0,2.43,20.0,24.4
"17/10/11","15:00",0.0,29.3,58.9,1007.1,203.0,1.1,3.3,198.4,1.38,20.5,24.6
"17/10/11","16:00",0.0,29.0,60.7,1006.4,263.3,0.6,2.7,208.3,0.84,20.7,24.5
"17/10/11","17:00",0.0,26.2,70.6,1006.2,296.2,0.8,3.2,220.0,0.27,20.5,24.1
"17/10/11","18:00",0.0,23.6,81.0,1007.8,285.0,0.8,2.2,338.7,0.00,20.2,23.6
"17/10/11","19:00",0.0,22.9,83.6,1008.6,320.4,1.5,3.4,313.5,0.00,20.0,23.1
"17/10/11","20:00",0.0,21.9,86.0,1009.3,301.6,1.1,3.4,335.8,0.00,19.5,22.7
"17/10/11","21:00",0.0,21.3,89.2,1009.7,302.0,1.2,2.7,340.9,0.00,19.5,22.5
"17/10/11","22:00",0.0,21.0,91.4,1009.7,319.2,1.8,2.7,322.4,0.00,19.6,22.1
"17/10/11","23:00",0.0,21.4,89.1,1010.2,323.1,1.7,2.9,310.4,0.00,19.6,21.9
"17/10/11","24:00",0.0,21.7,87.9,1010.0,291.4,1.3,3.5,336.0,0.00,19.6,21.8
"17/10/12","01:00",0.0,21.5,88.4,1009.7,297.3,1.1,3.3,331.2,0.00,19.5,21.8
"17/10/12","02:00",0.0,21.9,87.9,1010.4,312.3,1.2,3.1,308.8,0.00,19.8,22.1
"17/10/12","03:00",0.0,21.6,87.9,1010.0,329.4,1.3,2.9,337.9,0.00,19.5,21.8
"17/10/12","04:00",0.0,21.7,87.3,1009.7,330.3,2.1,4.0,338.3,0.00,19.5,21.9
"17/10/12","05:00",0.0,21.4,87.5,1010.0,328.4,1.8,3.2,336.8,0.00,19.3,21.8
"17/10/12","06:00",0.0,20.9,89.1,1010.4,320.0,1.5,3.7,343.6,0.00,19.1,21.7
"17/10/12","07:00",0.0,20.7,87.5,1010.9,327.4,2.2,4.2,323.4,0.00,18.6,21.6
"17/10/12","08:00",0.0,20.6,82.6,1011.4,327.4,2.3,7.2,338.2,0.02,17.6,21.4
"17/10/12","09:00",0.0,20.7,79.9,1011.4,328.1,2.2,6.5,16.2,0.24,17.1,21.7
"17/10/12","10:00",0.0,21.0,78.9,1010.9,336.4,1.8,6.4,324.4,0.32,17.2,21.7
"17/10/12","11:00",0.0,21.8,77.0,1010.2,323.3,1.7,5.0,326.4,0.36,17.6,21.8
"17/10/12","12:00",0.0,21.4,75.8,1009.7,326.3,3.0,6.2,350.8,0.82,17.0,21.9
"17/10/12","13:00",0.0,20.8,78.1,1009.3,333.1,3.0,6.0,338.0,0.48,16.9,21.8
"17/10/12","14:00",0.0,20.1,77.8,1008.6,330.9,2.1,7.0,356.2,0.35,16.1,21.9
"17/10/12","15:00",0.0,19.5,81.7,1008.3,311.4,1.2,4.4,339.8,0.06,16.3,21.7
"17/10/12","16:00",0.0,19.5,82.2,1008.8,288.2,1.0,3.5,319.3,0.02,16.4,21.3
"17/10/12","17:00",0.0,18.7,86.6,1009.0,283.3,0.8,2.5,333.4,0.00,16.5,21.4
"17/10/12","18:00",0.0,18.5,86.9,1009.0,313.1,1.2,3.1,320.3,0.00,16.3,21.2
"17/10/12","19:00",0.0,18.6,85.3,1009.7,316.3,1.5,5.2,341.8,0.00,16.1,21.1
"17/10/12","20:00",0.0,18.6,84.4,1009.5,319.7,1.5,5.8,331.8,0.00,16.0,20.8
"17/10/12","21:00",0.0,18.5,84.0,1010.2,321.8,2.2,6.7,340.0,0.00,15.8,20.9
"17/10/12","22:00",0.0,18.1,83.7,1010.4,312.5,1.5,3.9,316.7,0.00,15.3,20.6
"17/10/12","23:00",0.0,17.9,83.5,1010.0,314.3,2.7,5.1,335.0,0.00,15.1,20.7
"17/10/12","24:00",0.0,17.5,82.2,1010.2,328.0,3.1,6.6,327.5,0.00,14.5,20.5
"17/10/13","01:00",0.0,17.0,81.0,1010.0,329.1,3.7,7.7,344.6,0.00,13.8,20.2
"17/10/13","02:00",0.0,16.8,81.5,1010.0,315.5,2.5,6.6,330.8,0.00,13.7,20.1
"17/10/13","03:00",0.0,16.7,81.1,1010.4,318.2,1.5,4.3,341.6,0.00,13.5,20.0
"17/10/13","04:00",0.0,16.6,82.1,1010.0,285.4,1.1,3.5,338.5,0.00,13.6,20.1
"17/10/13","05:00",0.0,16.1,86.2,1010.4,329.4,1.5,4.4,316.0,0.00,13.8,19.9
"17/10/13","06:00",0.0,16.0,87.0,1010.4,325.8,2.0,2.8,334.2,0.00,13.9,19.8
"17/10/13","07:00",0.0,16.1,86.9,1010.9,327.0,1.6,5.1,335.6,0.00,14.0,19.7
"17/10/13","08:00",0.0,16.4,85.2,1010.9,325.9,2.2,4.8,332.9,0.00,13.9,19.7
"17/10/13","09:00",0.0,16.5,86.1,1011.6,329.7,2.1,5.1,348.4,0.04,14.2,19.7
"17/10/13","10:00",0.4,16.2,90.6,1011.2,328.6,2.3,4.5,311.6,0.17,14.7,19.7
"17/10/13","11:00",0.0,17.3,90.4,1010.9,315.5,2.3,6.6,345.6,0.54,15.8,19.9
"17/10/13","12:00",0.0,18.0,87.1,1010.9,299.2,1.3,4.2,331.6,0.67,15.9,20.2
"17/10/13","13:00",0.0,18.1,86.7,1010.7,317.6,1.3,4.8,329.1,0.52,15.9,20.3
"17/10/13","14:00",0.0,18.4,84.3,1010.2,323.0,2.1,4.5,343.4,0.62,15.7,20.5
"17/10/13","15:00",0.2,18.2,87.0,1010.7,324.4,1.8,4.1,322.8,0.28,16.0,20.5
"17/10/13","16:00",0.0,17.9,88.4,1010.9,313.5,1.5,4.0,319.1,0.22,16.0,20.6
"17/10/13","17:00",0.0,17.6,90.2,1010.4,308.8,1.2,3.6,342.2,0.00,16.0,20.2
"17/10/13","18:00",0.0,17.2,91.2,1011.4,325.0,1.6,3.5,327.7,0.00,15.8,20.4
"17/10/13","19:00",0.0,16.8,92.1,1012.1,331.4,1.1,3.2,341.3,0.00,15.6,20.1
"17/10/13","20:00",0.0,16.5,93.2,1012.3,336.0,0.8,2.5,341.0,0.00,15.4,19.8
"17/10/13","21:00",0.0,16.5,93.4,1012.8,321.7,1.7,2.8,331.6,0.00,15.5,19.8
"17/10/13","22:00",0.0,16.7,92.7,1012.8,332.9,1.6,3.1,342.4,0.00,15.6,19.7
"17/10/13","23:00",0.0,16.6,92.7,1013.3,324.0,1.5,2.5,319.6,0.00,15.5,19.6
"17/10/13","24:00",0.0,16.7,92.4,1012.3,322.7,1.7,2.7,327.2,0.00,15.5,19.6
"17/10/14","01:00",0.0,16.8,92.0,1012.6,330.4,1.6,3.4,344.4,0.00,15.5,19.5
"17/10/14","02:00",0.0,16.7,91.6,1013.0,329.5,1.6,4.1,323.9,0.00,15.4,19.5
"17/10/14","03:00",0.0,16.6,91.3,1013.0,311.0,1.5,3.7,342.2,0.00,15.2,19.7